This is the latest recevied weather packets stored in our database for station/object KA9CBS. If no packets are shown the sender has not sent any weather packets the latest 10 day(s).
| Time | Temp. | Humidity | Pressure | Rain* | Wind** | Luminosity | Snow |
|---|---|---|---|---|---|---|---|
| 1777833043 | 17.78° C | 50% | 1018.4 hPa | 0 mm | - | 754 W/m² | - |
| 1777832741 | 17.22° C | 51% | 1018.2 hPa | 0 mm | - | 754 W/m² | - |
| 1777832439 | 17.78° C | 52% | 1018.6 hPa | 0 mm | - | 746 W/m² | - |
| 1777832130 | 17.22° C | 51% | 1018.6 hPa | 0 mm | - | 751 W/m² | - |
| 1777831826 | 17.78° C | 53% | 1018.6 hPa | 0 mm | - | 753 W/m² | - |
| 1777831524 | 17.22° C | 52% | 1018.9 hPa | 0 mm | - | 748 W/m² | - |
| 1777831221 | 17.22° C | 51% | 1018.9 hPa | 0 mm | - | 753 W/m² | - |
| 1777830919 | 16.67° C | 52% | 1019.1 hPa | 0 mm | - | 757 W/m² | - |
| 1777830615 | 17.22° C | 52% | 1019.4 hPa | 0 mm | - | 764 W/m² | - |
| 1777830313 | 17.22° C | 52% | 1019.2 hPa | 0 mm | - | 753 W/m² | - |
| 1777830009 | 17.22° C | 53% | 1019.3 hPa | 0 mm | - | 735 W/m² | - |
| 1777829703 | 17.22° C | 56% | 1019.3 hPa | 0 mm | - | 741 W/m² | - |
| 1777829400 | 16.67° C | 54% | 1019.3 hPa | 0 mm | - | 725 W/m² | - |
| 1777829098 | 16.67° C | 57% | 1019.5 hPa | 0 mm | - | 713 W/m² | - |
| 1777828795 | 16.67° C | 54% | 1019.6 hPa | 0 mm | - | 718 W/m² | - |
| 1777828491 | 16.67° C | 54% | 1019.6 hPa | 0 mm | - | 723 W/m² | - |
| 1777828189 | 16.67° C | 52% | 1019.9 hPa | 0 mm | - | 718 W/m² | - |
| 1777827885 | 16.11° C | 54% | 1019.8 hPa | 0 mm | - | 727 W/m² | - |
| 1777827582 | 16.11° C | 57% | 1020 hPa | 0 mm | - | 725 W/m² | - |
| 1777827280 | 16.11° C | 55% | 1020.2 hPa | 0 mm | - | 710 W/m² | - |
| 1777826976 | 15.56° C | 53% | 1020.3 hPa | 0 mm | - | 689 W/m² | - |
| 1777826673 | 16.11° C | 53% | 1020.3 hPa | 0 mm | - | 630 W/m² | - |
| 1777826369 | 15.56° C | 54% | 1020.6 hPa | 0 mm | - | 629 W/m² | - |
| 1777826067 | 15.56° C | 54% | 1020.5 hPa | 0 mm | - | 632 W/m² | - |
| 1777825763 | 15.56° C | 57% | 1020.7 hPa | 0 mm | - | 664 W/m² | - |
* Rain latest hour (hover to see other rain measurements)
** Current wind speed in m/s (hover to see current wind gust speed)